TimePST,TemperatureF,Dew PointF,Humidity,Sea Level PressureIn,VisibilityMPH,Wind Direction,Wind SpeedMPH,Gust SpeedMPH,PrecipitationIn,Events,Conditions,WindDirDegrees,DateUTC
12:56 AM,35.1,34.0,96,30.44,10.0,SSE,4.6,-,N/A,,Overcast,160,2013-02-24 08:56:00
1:56 AM,35.1,34.0,96,30.45,10.0,South,4.6,-,N/A,,Partly Cloudy,180,2013-02-24 09:56:00
2:56 AM,35.1,34.0,96,30.45,10.0,South,5.8,-,N/A,,Overcast,170,2013-02-24 10:56:00
3:56 AM,36.0,34.0,93,30.44,10.0,South,4.6,-,N/A,,Overcast,170,2013-02-24 11:56:00
4:56 AM,36.0,34.0,93,30.44,10.0,SSE,5.8,-,N/A,,Overcast,160,2013-02-24 12:56:00
5:56 AM,35.1,33.1,92,30.43,10.0,SE,4.6,-,N/A,,Overcast,140,2013-02-24 13:56:00
6:56 AM,36.0,34.0,93,30.43,10.0,SSE,8.1,-,N/A,,Overcast,150,2013-02-24 14:56:00
7:56 AM,36.0,35.1,97,30.43,10.0,SE,9.2,-,N/A,,Overcast,140,2013-02-24 15:56:00
8:56 AM,37.9,36.0,93,30.42,10.0,SE,9.2,-,N/A,,Overcast,130,2013-02-24 16:56:00
9:56 AM,41.0,37.0,86,30.42,10.0,South,5.8,-,N/A,,Overcast,180,2013-02-24 17:56:00
10:56 AM,45.0,35.1,68,30.39,10.0,South,13.8,-,N/A,,Clear,180,2013-02-24 18:56:00
11:56 AM,46.9,36.0,66,30.38,10.0,South,9.2,-,N/A,,Clear,170,2013-02-24 19:56:00
12:56 PM,48.9,34.0,56,30.35,10.0,SSW,13.8,-,N/A,,Clear,200,2013-02-24 20:56:00
1:56 PM,50.0,34.0,54,30.31,10.0,South,10.4,-,N/A,,Clear,170,2013-02-24 21:56:00
2:56 PM,50.0,33.1,52,30.28,10.0,SSE,8.1,-,N/A,,Scattered Clouds,160,2013-02-24 22:56:00
3:56 PM,50.0,32.0,50,30.26,10.0,SSE,11.5,-,N/A,,Scattered Clouds,150,2013-02-24 23:56:00
4:56 PM,48.9,33.1,54,30.23,10.0,South,5.8,-,N/A,,Clear,170,2013-02-25 00:56:00
5:56 PM,46.0,35.1,66,30.21,10.0,South,5.8,-,N/A,,Mostly Cloudy,170,2013-02-25 01:56:00
6:56 PM,45.0,35.1,68,30.19,10.0,SSE,4.6,-,N/A,,Overcast,160,2013-02-25 02:56:00
7:56 PM,42.1,36.0,79,30.16,10.0,SE,8.1,-,N/A,,Mostly Cloudy,140,2013-02-25 03:56:00
8:56 PM,45.0,36.0,71,30.14,10.0,SSE,9.2,-,N/A,,Mostly Cloudy,160,2013-02-25 04:56:00
9:56 PM,46.0,36.0,68,30.13,10.0,SSE,12.7,-,N/A,,Overcast,150,2013-02-25 05:56:00
10:56 PM,44.1,35.1,71,30.11,10.0,SSE,12.7,20.7,0.01,Rain,Light Rain,160,2013-02-25 06:56:00
11:56 PM,45.0,35.1,68,30.08,10.0,South,17.3,21.9,0.00,,Overcast,170,2013-02-25 07:56:00